STARLINK-32595, 62037

Orbit data source: Space-Track

STARLINK-32595, 62037 is a payload satellite owned by SpaceX/Seattle (US) in LEO that was launched on Thu, 21 Nov 2024 UTC via an FALCON 9 launch vehicle from the Air Force Eastern Test Range (AFETR). Payload-class satellites include a variety of spacecraft equipped with specific instruments for various scientific and technological missions. These include communications satellites like Starlink; space stations such as the ISS; scientific satellites like the Hubble; Earth observation satellites from companies like Planet Labs, Umbra, and HawkEye 360; GPS; miniature CubeSats for education and research; and military/defense satellites.

Loading next visibility...
Identifier
62037, 2024-216F
Orbit
LEO
Last TLE update
7 hours ago
Origin
Manufacturer
SpaceX/Seattle
Mission
Operational Commercial Communications
Bus & Motor
STARLINK V2M, Unknown motor
Mass
730 kg wet, ~700 kg dry
Launch date (UTC)
2024-11-21 (5 months ago)
Launch vehicle
FALCON 9
Launch site
Air Force Eastern Test Range (AFETR)
Object type
Payload
Rocket body
Debris
Shape & HBR
Box + 2 Pan, 29 m
Radar Cross Section
36.964 m², Large (>1 m²)

Expand to show TLE details & history

TLE from 7 hours ago
0 STARLINK-32595
1 62037U 24216F   25109.55521857 -.00000226  00000-0  18678-5 0  9994
2 62037  43.0046 294.6382 0001484 267.5868  92.4819 15.40699382 24220
Epoch: 2025-04-19T13:19Z
Definitive object data (Epoch: 2025-04-19T13:19:30.884Z)
Latitude
0.00001°
Longitude
-113.13721°
Altitude
443.863 km
Speed
7.648 km/s
True Right ascension
19h 38m 33s
True Declination
0° 00' 00"
Sunlit
Object was in daylight at TLE epoch
Visualization TLE readout
Latitude
-41.20613°
Longitude
176.06303°
Altitude
455.605 km
Speed
7.64 km/s
Apparent Right ascension
15h 16m 47s
Apparent Declination
-40° 31' 49"
Sunlit
Object is in full shadow
Visualization observer readout
Local Sidereal Time
03:39:20
Azimuth
99.939° ESE
Elevation
-85.655°
Doppler factor
1
Orbital elements
Apogee altitude
447.012 km
Perigee altitude
444.987 km
Semi-major axis
6,824.136 km
Eccentricity
0.0001484
Inclination
43.0046°
RAAN
294.6382°
Arg. of periapsis
267.5868°
True anomaly
92.49889°
Mean anomaly
92.4819°
Eccentric anomaly
92.49039°
Mean motion
3.8501 °/min
BSTAR
0.0000018678
Orbital period
93.5 mins
Loading maneuver chart data...
Loading SW <> Apogee altitude chart data...
Loading historical data...
Loading historical data...
Loading historical data...
Loading historical data...
Loading historical data...
Loading historical data...
Loading historical data...

STARLINK-32595 Visibility forecast

Observer location: undefined°, undefined°

Span
Click to sort rows by Start time (UTC) header in descending order
Start Az.
Max El. time (UTC)
Max El. Az.
Max El.
End time (UTC)
End Az.
6 mins2025-04-19 21:34:59.713Z274.32° WNW2025-04-19 21:37:59.713Z215.556° SW27.456°2025-04-19 21:40:59.713Z148.685° SSE
5 mins2025-04-20 16:00:59.713Z234.511° WSW2025-04-20 16:02:59.713Z191.907° SSW40.5°2025-04-20 16:05:59.713Z77.698° E
4 mins2025-04-20 17:39:59.713Z290.758° WNW2025-04-20 17:40:59.713Z320.832° NNW36.238°2025-04-20 17:43:59.713Z67.338° ENE
5 mins2025-04-20 19:17:59.713Z297.355° NW2025-04-20 19:19:59.713Z30.25° NE41.261°2025-04-20 19:22:59.713Z93.11° ESE
|